Terug naar catalogus

STARLINK-32612

ActiefCommunicatieVLEO
NORAD 61972·PAYLOAD·🇺🇸 United States

Gelanceerd Nov 14, 2024 vanaf Cape Canaveral Space Force Station

Loading…

Volgende Passages (komende 24 uur)

TLE

VersSource: CelesTrak SupGP

Epoch: Sep 15, 2026, 03:40 UTC

1 61972C 24210P   26258.15326389 -.00035704  00000+0 -12934-2 0  2583
2 61972  43.0003 190.1101 0001390 275.0657  52.3763 15.27589955    18

Volg STARLINK-32612 in realtime met AllMySat

Download on the App Store